MMS 1

Last updated on Thu Oct 30 2025 00:02:41 GMT+0000 (Coordinated Universal Time)

1 40482U 15011A 25302.58336806 -.00000548 00000+0 00000+0 0 9993 2 40482 68.3127 352.3069 8560989 162.3489 177.4750 0.28363388 1376
UTC large
Height (km)
Speed (km/s)
/
Latitude / Longitude
Inclination (degrees)
Orbital Period (minutes)
Azimuth
Elevation
Range (km)
Doppler Factor

Next 0 passes for location: London (51.5072 / 0.1276)

Sorry there are no passes over London.